Weather reports worldwide

Advertisment
Loch Glascarnoch, United Kingdom (3031): temperature & dewpoint: 09.07.2018 20:00:00 - 15.07.2018 20:00:00 (BST)Loch Glascarnoch, United Kingdom (3031): temperature -20cm & temperature -100cm: 09.07.2018 20:00:00 - 15.07.2018 20:00:00 (BST)Loch Glascarnoch, United Kingdom (3031): wind speed & gusts: 09.07.2018 20:00:00 - 15.07.2018 20:00:00 (BST)Loch Glascarnoch, United Kingdom (3031): wind direction: 09.07.2018 20:00:00 - 15.07.2018 20:00:00 (BST)Loch Glascarnoch, United Kingdom (3031): reduced air pressure: 09.07.2018 20:00:00 - 15.07.2018 20:00:00 (BST)Loch Glascarnoch, United Kingdom (3031): visibility: 09.07.2018 20:00:00 - 15.07.2018 20:00:00 (BST)Loch Glascarnoch, United Kingdom (3031): sunshine duration: 09.07.2018 20:00:00 - 15.07.2018 20:00:00 (BST)Loch Glascarnoch, United Kingdom (3031): precipitation: 09.07.2018 20:00:00 - 15.07.2018 20:00:00 (BST)
Date & Time tt [°C] td [°C] tt -20cm [°C] tt -100cm [°C] ff [km/h] ff [kn] fx [km/h] fx [kn] dd ppp [hPa] vv [km] sd [min] rr [mm]
15.07.2018 20:00:00 - - - - - - - - - - - - 0,0
15.07.2018 19:00:00 18,3 16,1 - - 11 6 - - ESE 1009,7 50 0 0,0
15.07.2018 18:00:00 18,7 15,2 - - 2 1 - - N 1009,8 50 0 0,0
15.07.2018 17:00:00 18,5 15,3 - - 5 3 - - SSW 1010,1 28 0 0,0
15.07.2018 16:00:00 18,9 14,8 - - 13 7 - - WSW 1010,5 50 0 0,0
15.07.2018 15:00:00 18,6 16,0 - - 13 7 - - WSW 1010,6 4,5 0 0,0
15.07.2018 14:00:00 19,6 15,3 - - 13 7 - - SSW 1010,3 45 0 0,0
15.07.2018 13:00:00 18,6 16,5 - - 15 8 - - ESE 1010,5 50 0 0,0
15.07.2018 12:00:00 17,7 16,1 - - 15 8 - - E 1011,0 35 0 0,0
15.07.2018 11:00:00 18,1 16,3 - - 11 6 - - SE 1011,0 35 0 0,2
15.07.2018 10:00:00 17,1 15,4 15,0 14,0 11 6 - - SSW 1011,0 14 0 0,8
15.07.2018 09:00:00 17,3 15,1 - - 18 10 - - SW 1011,0 50 0 0,2
15.07.2018 08:00:00 17,0 14,7 - - 11 6 - - SW 1010,8 45 0 0,0
15.07.2018 07:00:00 16,9 14,6 - - 11 6 - - SW 1010,9 50 0 0,2
15.07.2018 06:00:00 16,8 14,6 - - 5 3 - - ENE 1010,9 30 0 0,2
15.07.2018 05:00:00 16,6 14,6 - - 4 2 - - ESE 1010,9 40 0 0,2
15.07.2018 04:00:00 16,8 14,5 - - 5 3 - - ESE 1011,2 14 0 0,0
15.07.2018 03:00:00 17,0 14,7 - - 9 5 - - E 1011,4 14 0 0,2
15.07.2018 02:00:00 17,1 14,5 - - 9 5 - - W 1011,5 40 0 0,0
15.07.2018 01:00:00 16,8 14,6 - - 8 4 - - NNE 1011,7 50 - 0,4
15.07.2018 00:00:00 17,1 14,4 - - 8 4 - - W 1012,0 45 0 0,2
14.07.2018 23:00:00 17,6 14,1 - - 13 7 - - SW 1012,1 50 0 0,0
14.07.2018 22:00:00 17,4 14,0 - - 11 6 - - WNW 1012,3 50 0 0,0
14.07.2018 21:00:00 17,2 13,9 - - 9 5 - - SW 1012,6 50 0 0,0
14.07.2018 20:00:00 17,2 13,8 - - 9 5 - - S 1012,7 45 0 0,0
14.07.2018 19:00:00 17,0 13,6 - - 8 4 - - SW 1013,1 50 0 0,0
14.07.2018 18:00:00 17,0 13,5 - - 15 8 - - W 1013,2 40 0 0,0
14.07.2018 17:00:00 16,8 13,3 - - 21 11 - - WSW 1013,4 45 0 0,0
14.07.2018 16:00:00 16,7 13,4 - - 21 11 - - SW 1013,5 45 0 0,0
14.07.2018 15:00:00 17,0 12,8 - - 22 12 - - SW 1013,8 50 0 0,0
14.07.2018 14:00:00 17,1 12,3 - - 21 11 - - SW 1014,0 45 0 0,0
14.07.2018 13:00:00 16,9 11,5 - - 24 13 46 25 WSW 1014,0 40 6 0,0
14.07.2018 12:00:00 17,4 11,4 - - 21 11 - - WSW 1014,0 50 0 0,0
14.07.2018 11:00:00 16,3 10,5 - - 16 9 - - SW 1014,5 40 0 0,0
14.07.2018 10:00:00 15,9 10,7 15,2 14,0 24 13 46 25 SW 1014,8 45 0 0,0
14.07.2018 09:00:00 15,9 10,0 - - 15 8 - - W 1014,9 45 0 0,0
14.07.2018 08:00:00 15,3 10,1 - - 15 8 - - WSW 1015,3 50 0 0,0
14.07.2018 07:00:00 14,7 10,3 - - 11 6 - - WSW 1015,8 35 0 0,0
14.07.2018 06:00:00 14,3 10,0 - - 9 5 - - WSW 1016,2 50 0 0,0
14.07.2018 05:00:00 14,1 9,6 - - 8 4 - - W 1016,7 45 0 0,0
14.07.2018 04:00:00 14,3 9,2 - - 8 4 - - WSW 1017,4 50 0 0,0
14.07.2018 03:00:00 12,8 9,3 - - 9 5 - - ENE 1017,7 50 0 0,0
14.07.2018 02:00:00 13,3 9,1 - - 9 5 - - E 1018,0 45 0 0,0
14.07.2018 01:00:00 14,3 9,4 - - 16 9 - - SSW 1018,6 50 - 0,0
14.07.2018 00:00:00 14,0 9,4 - - 13 7 - - SSW 1018,9 50 0 0,0
13.07.2018 23:00:00 13,7 9,3 - - 18 10 - - SW 1019,4 50 0 0,0
13.07.2018 22:00:00 14,6 9,2 - - 16 9 - - SW 1019,5 50 0 0,0
13.07.2018 21:00:00 15,4 10,3 - - 15 8 - - WSW 1019,3 50 0 0,0
13.07.2018 20:00:00 16,8 10,2 - - 16 9 - - WSW 1019,1 50 36 0,0
13.07.2018 19:00:00 17,4 10,0 - - 15 8 - - SW 1018,9 45 12 0,0
13.07.2018 18:00:00 17,4 9,7 - - 22 12 - - SW 1019,5 50 0 0,0
13.07.2018 17:00:00 18,4 10,6 - - 15 8 - - WSW 1019,6 50 18 0,0
13.07.2018 16:00:00 18,7 11,8 - - 18 10 - - WNW 1019,8 20 6 0,0
13.07.2018 15:00:00 17,8 10,7 - - 11 6 - - W 1020,3 40 0 0,0
13.07.2018 14:00:00 18,0 10,9 - - 15 8 - - WNW 1020,4 35 12 0,0
13.07.2018 13:00:00 18,2 11,2 - - 8 4 - - WNW 1020,6 35 6 0,0
13.07.2018 12:00:00 16,3 10,2 - - 13 7 - - NW 1021,2 50 0 0,0
13.07.2018 11:00:00 16,5 10,0 - - 11 6 - - W 1021,3 45 24 0,0
13.07.2018 10:00:00 15,8 11,0 15,2 14,0 5 3 - - E 1021,5 45 24 0,0
13.07.2018 09:00:00 14,2 11,3 - - 5 3 - - E 1022,0 40 0 0,0
13.07.2018 08:00:00 13,3 11,0 - - 2 1 - - E 1022,3 45 0 0,0
13.07.2018 07:00:00 12,8 11,1 - - 2 1 - - SSE 1022,4 45 0 0,0
13.07.2018 06:00:00 12,2 11,3 - - 4 2 - - E 1022,6 35 0 0,0
13.07.2018 05:00:00 12,0 10,8 - - 4 2 - - W 1022,8 40 0 0,0
13.07.2018 04:00:00 12,0 10,7 - - 4 2 - - NE 1023,2 50 0 0,0
13.07.2018 03:00:00 12,2 10,5 - - 4 2 - - NNW 1023,3 45 0 0,0
13.07.2018 02:00:00 12,5 10,6 - - 5 3 - - ESE 1023,6 50 0 0,0
13.07.2018 01:00:00 12,6 10,9 - - 4 2 - - WNW 1023,8 50 - 0,0
13.07.2018 00:00:00 12,7 10,3 - - 5 3 - - WSW 1024,0 50 0 0,0
12.07.2018 23:00:00 12,7 9,3 - - 11 6 - - NW 1024,0 40 0 0,0
12.07.2018 22:00:00 13,4 9,8 - - 15 8 - - WNW 1023,8 50 0 0,0
12.07.2018 21:00:00 14,0 10,1 - - 16 9 - - WNW 1023,5 50 0 0,0
12.07.2018 20:00:00 14,9 11,1 - - 21 11 - - W 1023,3 35 0 0,0
12.07.2018 19:00:00 15,5 12,5 - - 9 5 - - ESE 1023,1 50 0 0,0
12.07.2018 18:00:00 16,1 12,5 - - 5 3 - - E 1023,0 45 6 0,0
12.07.2018 17:00:00 16,7 12,1 - - 2 1 - - SE 1023,2 50 0 0,0
12.07.2018 16:00:00 15,4 12,0 - - 5 3 - - N 1023,7 20 0 0,0
12.07.2018 15:00:00 16,0 11,6 - - 8 4 - - S 1023,7 50 0 0,0
12.07.2018 14:00:00 15,3 11,7 - - 8 4 - - W 1024,0 40 0 0,0
12.07.2018 13:00:00 14,2 11,7 - - 8 4 - - WNW 1024,4 14 0 0,0
12.07.2018 12:00:00 13,9 12,0 - - 5 3 - - W 1024,5 10 0 0,2
12.07.2018 11:00:00 13,7 11,0 - - 5 3 - - S 1024,4 5 0 0,0
12.07.2018 10:00:00 13,6 10,6 14,9 14,0 2 1 - - SSE 1024,5 35 0 0,0
12.07.2018 09:00:00 13,6 11,0 - - 2 1 - - SSE 1024,6 40 0 0,0
12.07.2018 08:00:00 12,6 11,2 - - 4 2 - - E 1024,6 50 18 0,0
12.07.2018 07:00:00 11,5 11,4 - - 5 3 - - NW 1024,7 40 0 0,0
12.07.2018 06:00:00 11,1 11,0 - - 8 4 - - NW 1024,7 17 0 0,0
12.07.2018 05:00:00 11,0 10,9 - - 9 5 - - WNW 1024,7 6 0 0,0
12.07.2018 04:00:00 11,1 11,0 - - 8 4 - - WNW 1024,9 2,7 0 0,2
12.07.2018 03:00:00 11,2 11,1 - - 9 5 - - NW 1025,1 3,1 0 0,0
12.07.2018 02:00:00 11,3 11,2 - - 9 5 - - WNW 1025,1 11 0 0,0
12.07.2018 01:00:00 11,4 11,3 - - 13 7 - - WNW 1025,4 2,5 - 0,0
12.07.2018 00:00:00 11,5 11,3 - - 15 8 - - W 1025,3 2,5 0 0,2
11.07.2018 23:00:00 11,7 11,3 - - 16 9 - - WNW 1025,5 5 0 0,0
11.07.2018 22:00:00 12,0 11,3 - - 16 9 - - WNW 1025,2 35 0 0,0
11.07.2018 21:00:00 12,2 11,5 - - 16 9 - - WNW 1024,9 30 0 0,0
11.07.2018 20:00:00 12,6 11,8 - - 16 9 - - W 1025,0 45 0 0,0
11.07.2018 19:00:00 12,8 12,3 - - 18 10 - - W 1024,9 30 0 0,0
11.07.2018 18:00:00 13,1 12,3 - - 18 10 - - WNW 1024,9 24 0 0,0
11.07.2018 17:00:00 13,2 12,0 - - 18 10 - - W 1025,0 21 0 0,0
11.07.2018 16:00:00 13,6 12,5 - - 18 10 - - WNW 1025,0 24 0 0,2
11.07.2018 15:00:00 13,3 12,1 - - 21 11 - - W 1025,1 28 0 0,0
11.07.2018 14:00:00 13,3 12,2 - - 21 11 - - W 1025,2 40 0 0,0
11.07.2018 13:00:00 13,3 12,1 - - 21 11 - - W 1025,3 50 0 0,0
11.07.2018 12:00:00 13,2 12,1 - - 21 11 - - W 1025,2 14 0 0,0
11.07.2018 11:00:00 13,3 12,9 - - 16 9 - - WNW 1025,3 45 0 0,0
11.07.2018 10:00:00 12,5 12,2 15,2 14,2 16 9 - - W 1025,5 29 0 0,2
11.07.2018 09:00:00 12,0 11,9 - - 15 8 - - W 1025,5 5 0 0,2
11.07.2018 08:00:00 11,9 11,6 - - 16 9 - - W 1025,5 10 0 0,6
11.07.2018 07:00:00 11,7 11,6 - - 18 10 - - WNW 1025,3 16 0 1,4
11.07.2018 06:00:00 11,6 11,5 - - 16 9 - - W 1025,2 11 0 2,4
11.07.2018 05:00:00 11,7 11,7 - - 15 8 - - WNW 1025,2 15 0 0,2
11.07.2018 04:00:00 11,7 11,6 - - 13 7 - - WNW 1025,4 9 0 0,0
11.07.2018 03:00:00 11,7 11,7 - - 15 8 - - W 1025,5 5 0 0,0
11.07.2018 02:00:00 11,8 11,7 - - 13 7 - - W 1025,7 9 0 0,0
11.07.2018 01:00:00 11,9 11,8 - - 15 8 - - W 1026,0 16 - 0,0
11.07.2018 00:00:00 12,0 12,0 - - 13 7 - - WNW 1026,3 17 0 1,0
10.07.2018 23:00:00 12,1 12,0 - - 11 6 - - W 1026,5 11 0 0,4
10.07.2018 22:00:00 12,2 12,0 - - 15 8 - - W 1026,4 0,6 0 0,4
10.07.2018 21:00:00 12,5 12,2 - - 15 8 - - WNW 1026,3 11 0 0,0
10.07.2018 20:00:00 12,9 12,4 - - 13 7 - - WNW 1026,3 15 0 0,0
10.07.2018 19:00:00 13,8 12,7 - - 16 9 - - WNW 1026,1 40 0 0,0
10.07.2018 18:00:00 14,3 12,9 - - 16 9 - - WNW 1026,0 35 0 0,0
10.07.2018 17:00:00 14,0 13,1 - - 16 9 - - WNW 1026,3 26 0 0,0
10.07.2018 16:00:00 13,9 13,2 - - 16 9 - - WNW 1026,7 45 0 0,2
10.07.2018 15:00:00 13,8 12,9 - - 15 8 - - WNW 1026,8 50 0 0,0
10.07.2018 14:00:00 14,0 13,2 - - 15 8 - - WNW 1026,9 45 0 0,0
10.07.2018 13:00:00 13,9 13,6 - - 15 8 - - WNW 1027,0 40 0 0,0
10.07.2018 12:00:00 13,4 13,0 - - 11 6 - - W 1027,3 8 0 0,2
10.07.2018 11:00:00 12,9 12,5 - - 13 7 - - W 1027,4 10 0 2,0
10.07.2018 10:00:00 12,6 12,3 15,5 14,2 13 7 - - WNW 1027,6 6 0 1,4
10.07.2018 09:00:00 12,4 12,0 - - 9 5 - - W 1027,8 3,9 0 0,2
10.07.2018 08:00:00 12,2 11,8 - - 9 5 - - W 1027,8 11 0 0,2
10.07.2018 07:00:00 11,9 11,5 - - 8 4 - - WNW 1027,8 5 0 0,0
10.07.2018 06:00:00 11,6 11,1 - - 9 5 - - W 1028,1 10 0 0,0
10.07.2018 05:00:00 11,3 10,7 - - 8 4 - - SW 1028,3 21 0 0,0
10.07.2018 04:00:00 11,6 10,6 - - 9 5 - - W 1028,6 22 0 0,0
10.07.2018 03:00:00 11,7 10,4 - - 13 7 - - WNW 1028,6 24 0 0,0
10.07.2018 02:00:00 11,8 10,3 - - 13 7 - - WNW 1029,0 35 0 0,0
10.07.2018 01:00:00 11,8 10,1 - - 13 7 - - WNW 1029,2 35 - 0,0
10.07.2018 00:00:00 12,0 10,0 - - 9 5 - - WNW 1029,5 50 0 0,0
09.07.2018 23:00:00 11,9 9,6 - - 9 5 - - WNW 1029,5 40 0 0,0
09.07.2018 22:00:00 12,4 9,4 - - 16 9 - - WNW 1029,5 45 0 0,0
09.07.2018 21:00:00 12,8 9,2 - - 11 6 - - W 1029,4 40 0 0,0
09.07.2018 20:00:00 13,3 9,1 - - 11 6 - - NW 1029,5 40 0 0,0

tt = temperature
td = dewpoint
tt -20cm = temperature -20cm
tt -100cm = temperature -100cm
ff = wind speed
fx = gusts
dd = wind direction
ppp = reduced air pressure
vv = visibility
sd = sunshine duration
rr = precipitation

Next stations